Total_Precipitation_Accumulation
0.11 0.11 0.11 0.12 0.12 0.13 0.14 0.16 0.16 0.15 0.14 0.13 0.11 0.07 0.04 0.02 0.01 0.00 0.00 0.00 0.00 0.01 0.05 0.15 0.27 0.38 0.39 0.36 0.25 0.13 0.05 0.01 0.00 0.00 0.00 0.00 0.00 0.00 0.00 0.00 0.00 0.01 0.01
0.03 0.03 0.03 0.02 0.02 0.02 0.02 0.03 0.04 0.05 0.06 0.07 0.06 0.05 0.04 0.03 0.01 0.01 0.01 0.00 0.00 0.01 0.03 0.09 0.17 0.27 0.38 0.40 0.31 0.20 0.10 0.03 0.00 0.00 0.00 0.00 0.00 0.00 0.00 0.00 0.00 0.00 0.00
0.01 0.01 0.01 0.01 0.00 0.00 0.00 0.00 0.00 0.00 0.01 0.02 0.02 0.03 0.03 0.02 0.02 0.02 0.02 0.02 0.01 0.01 0.02 0.07 0.14 0.23 0.35 0.42 0.38 0.27 0.18 0.07 0.02 0.00 0.00 0.00 0.00 0.00 0.00 0.00 0.00 0.00 0.00
0.00 0.00 0.00 0.00 0.00 0.00 0.01 0.01 0.01 0.00 0.00 0.01 0.01 0.02 0.04 0.05 0.03 0.03 0.05 0.04 0.03 0.02 0.01 0.04 0.13 0.27 0.38 0.46 0.48 0.43 0.34 0.21 0.08 0.03 0.01 0.00 0.00 0.00 0.00 0.00 0.00 0.00 0.00
0.00 0.00 0.00 0.00 0.00 0.01 0.01 0.02 0.02 0.01 0.01 0.01 0.01 0.01 0.02 0.03 0.04 0.06 0.08 0.09 0.07 0.04 0.03 0.03 0.07 0.19 0.32 0.48 0.64 0.69 0.67 0.56 0.34 0.15 0.04 0.01 0.00 0.00 0.00 0.00 0.00 0.01 0.00
0.00 0.00 0.00 0.00 0.00 0.00 0.00 0.01 0.01 0.01 0.02 0.01 0.01 0.01 0.00 0.01 0.02 0.04 0.07 0.11 0.12 0.11 0.07 0.07 0.07 0.07 0.13 0.24 0.41 0.59 0.64 0.64 0.56 0.37 0.20 0.07 0.02 0.01 0.00 0.00 0.00 0.01 0.01
0.00 0.00 0.00 0.00 0.00 0.00 0.01 0.01 0.02 0.02 0.01 0.01 0.01 0.00 0.00 0.00 0.00 0.02 0.06 0.10 0.14 0.18 0.21 0.20 0.19 0.15 0.11 0.13 0.17 0.24 0.37 0.47 0.50 0.50 0.40 0.21 0.08 0.03 0.01 0.00 0.00 0.00 0.01
0.00 0.00 0.00 0.00 0.00 0.00 0.00 0.01 0.01 0.02 0.02 0.02 0.02 0.02 0.00 0.00 0.00 0.01 0.04 0.08 0.14 0.24 0.33 0.34 0.34 0.28 0.21 0.16 0.12 0.13 0.18 0.29 0.35 0.41 0.45 0.36 0.23 0.12 0.05 0.01 0.00 0.00 0.00
0.00 0.00 0.00 0.00 0.00 0.00 0.00 0.00 0.00 0.01 0.01 0.01 0.03 0.05 0.03 0.00 0.00 0.00 0.01 0.04 0.07 0.11 0.16 0.23 0.26 0.26 0.25 0.22 0.19 0.16 0.15 0.20 0.28 0.31 0.34 0.35 0.30 0.25 0.16 0.07 0.02 0.01 0.00
0.00 0.00 0.00 0.00 0.00 0.01 0.01 0.01 0.01 0.01 0.02 0.01 0.02 0.03 0.04 0.03 0.02 0.01 0.00 0.01 0.01 0.03 0.04 0.07 0.11 0.15 0.19 0.21 0.21 0.20 0.20 0.18 0.24 0.27 0.25 0.24 0.24 0.24 0.21 0.15 0.08 0.04 0.01
0.00 0.00 0.00 0.00 0.00 0.01 0.01 0.01 0.02 0.02 0.03 0.03 0.03 0.03 0.04 0.04 0.03 0.03 0.01 0.01 0.01 0.01 0.01 0.02 0.04 0.06 0.08 0.12 0.15 0.17 0.20 0.19 0.21 0.26 0.26 0.22 0.19 0.21 0.21 0.15 0.10 0.06 0.03
0.00 0.00 0.00 0.00 0.01 0.01 0.01 0.02 0.03 0.03 0.04 0.05 0.05 0.04 0.03 0.03 0.03 0.04 0.03 0.02 0.01 0.01 0.01 0.01 0.01 0.02 0.04 0.06 0.09 0.11 0.12 0.15 0.16 0.19 0.22 0.24 0.24 0.24 0.26 0.18 0.09 0.05 0.02
0.01 0.00 0.01 0.01 0.01 0.02 0.02 0.03 0.04 0.05 0.05 0.05 0.05 0.05 0.04 0.04 0.03 0.05 0.05 0.03 0.02 0.01 0.01 0.01 0.01 0.02 0.02 0.04 0.06 0.06 0.06 0.08 0.11 0.16 0.18 0.18 0.19 0.23 0.25 0.18 0.10 0.05 0.02
0.01 0.01 0.01 0.01 0.01 0.03 0.04 0.05 0.06 0.06 0.06 0.06 0.06 0.05 0.05 0.04 0.04 0.04 0.04 0.05 0.04 0.02 0.01 0.00 0.00 0.01 0.02 0.03 0.05 0.05 0.04 0.04 0.06 0.09 0.14 0.16 0.16 0.16 0.17 0.16 0.12 0.08 0.05
0.01 0.01 0.01 0.02 0.03 0.05 0.05 0.05 0.06 0.07 0.08 0.08 0.07 0.07 0.07 0.06 0.05 0.04 0.04 0.04 0.05 0.04 0.02 0.01 0.01 0.01 0.01 0.03 0.06 0.06 0.06 0.04 0.04 0.05 0.09 0.13 0.16 0.16 0.15 0.12 0.10 0.07 0.05
0.01 0.01 0.02 0.04 0.07 0.10 0.10 0.10 0.09 0.08 0.09 0.11 0.11 0.11 0.11 0.10 0.09 0.07 0.06 0.05 0.04 0.04 0.03 0.01 0.01 0.01 0.01 0.03 0.05 0.07 0.07 0.06 0.04 0.04 0.06 0.09 0.13 0.15 0.15 0.12 0.09 0.05 0.03
0.02 0.03 0.05 0.07 0.09 0.13 0.16 0.17 0.17 0.16 0.15 0.14 0.15 0.16 0.17 0.16 0.14 0.12 0.09 0.07 0.05 0.05 0.04 0.02 0.01 0.01 0.02 0.03 0.04 0.04 0.05 0.04 0.03 0.04 0.05 0.06 0.09 0.11 0.12 0.11 0.08 0.05 0.03
0.05 0.07 0.10 0.12 0.13 0.14 0.16 0.22 0.27 0.30 0.31 0.31 0.29 0.27 0.26 0.27 0.26 0.22 0.17 0.12 0.08 0.06 0.06 0.04 0.02 0.01 0.02 0.04 0.05 0.05 0.03 0.01 0.01 0.02 0.03 0.04 0.05 0.07 0.07 0.07 0.06 0.04 0.02
0.09 0.13 0.19 0.24 0.25 0.23 0.22 0.23 0.31 0.44 0.54 0.57 0.56 0.52 0.46 0.41 0.39 0.36 0.31 0.24 0.16 0.11 0.08 0.07 0.04 0.02 0.02 0.04 0.06 0.05 0.02 0.01 0.01 0.02 0.03 0.03 0.02 0.03 0.03 0.03 0.03 0.02 0.02
0.19 0.25 0.32 0.40 0.42 0.41 0.44 0.41 0.34 0.41 0.53 0.64 0.69 0.68 0.66 0.59 0.52 0.46 0.43 0.38 0.29 0.21 0.14 0.11 0.09 0.05 0.03 0.05 0.09 0.08 0.05 0.03 0.02 0.02 0.03 0.02 0.02 0.01 0.01 0.01 0.01 0.01 0.01
0.25 0.33 0.37 0.38 0.35 0.37 0.52 0.51 0.34 0.32 0.35 0.41 0.47 0.50 0.54 0.58 0.59 0.54 0.49 0.46 0.39 0.32 0.24 0.17 0.12 0.08 0.05 0.06 0.11 0.12 0.13 0.10 0.10 0.08 0.05 0.02 0.01 0.01 0.01 0.01 0.01 0.01 0.00
0.18 0.28 0.34 0.31 0.25 0.27 0.41 0.38 0.20 0.18 0.19 0.23 0.27 0.29 0.31 0.36 0.41 0.46 0.47 0.46 0.45 0.39 0.31 0.23 0.15 0.10 0.06 0.05 0.08 0.13 0.15 0.15 0.14 0.15 0.14 0.10 0.04 0.01 0.01 0.00 0.00 0.00 0.00
0.11 0.15 0.18 0.15 0.15 0.20 0.29 0.27 0.09 0.04 0.05 0.06 0.09 0.11 0.13 0.15 0.18 0.23 0.27 0.29 0.33 0.34 0.30 0.25 0.22 0.17 0.11 0.07 0.06 0.08 0.14 0.19 0.17 0.15 0.17 0.20 0.16 0.09 0.04 0.01 0.00 0.00 0.00
0.09 0.10 0.09 0.05 0.05 0.08 0.18 0.23 0.09 0.01 0.01 0.01 0.02 0.03 0.04 0.06 0.07 0.10 0.13 0.15 0.17 0.20 0.21 0.19 0.22 0.23 0.17 0.12 0.08 0.08 0.11 0.15 0.20 0.22 0.23 0.25 0.22 0.16 0.10 0.05 0.03 0.01 0.00
0.06 0.08 0.07 0.03 0.01 0.02 0.12 0.24 0.15 0.01 0.00 0.00 0.01 0.05 0.05 0.02 0.03 0.03 0.06 0.09 0.10 0.15 0.15 0.15 0.15 0.16 0.16 0.14 0.11 0.09 0.11 0.14 0.19 0.25 0.30 0.33 0.30 0.21 0.14 0.09 0.06 0.03 0.01
0.02 0.04 0.04 0.02 0.00 0.00 0.05 0.22 0.26 0.04 0.01 0.00 0.01 0.05 0.09 0.06 0.03 0.02 0.03 0.05 0.06 0.08 0.07 0.06 0.05 0.05 0.05 0.06 0.09 0.12 0.15 0.15 0.15 0.20 0.24 0.29 0.34 0.29 0.22 0.13 0.06 0.03 0.02